[[{"header":{"parameterUnit":"m.s-1","parameterCategory":1,"la1":30.2992,"la2":30.254,"lo1":-89.0895,"lo2":-89.0443,"dy":0.0025,"dx":0.0025,"nx":19,"ny":19,"refTime":"2026-04-22T03:00:00:Z","depth":0,"parameterNumber":2,"parameterNumberName":"U-component_of_WINDS"},"data":[0,0,0,-3.9319,-3.9322,-3.9462,-3.9462,-3.9644,-3.9646,0,0,0,0,0,0,0,0,0,0,0,-3.9281,-3.9282,-3.9319,-3.9323,-3.9462,-3.9462,-3.9644,-3.9646,0,0,0,0,0,0,0,0,0,0,0,-3.928,-3.9282,-3.9284,-3.9323,-3.9462,-3.9462,-3.9644,-3.9537,0,0,0,0,0,0,0,0,0,0,-3.9401,-3.9369,-3.9282,-3.9284,-3.9324,-3.9461,-3.9462,-3.9532,-3.9544,-3.9583,0,-3.962,0,-3.9636,-3.9658,-3.9659,0,0,0,-3.932,-3.9359,-3.9394,-3.9284,-3.9325,-3.9461,-3.9398,-3.9538,-3.9552,-3.9599,-3.9622,-3.9629,-3.9639,-3.966,-3.9661,-3.9897,-3.9899,0,0,-3.9312,-3.9308,-3.9385,-3.9403,-3.9382,-3.9394,-3.9403,-3.9546,-3.9571,-3.9623,-3.9633,-3.9642,-3.9661,-3.9662,-3.9896,-3.9898,0,0,0,-3.9292,-3.9302,-3.9334,-3.9395,-3.942,-3.9398,-3.9408,-3.9565,-3.9575,-3.9635,-3.9644,-3.9662,-3.9664,-3.9895,-3.9897,-3.9951,0,0,0,-3.9287,-3.929,-3.933,-3.9329,-3.9418,-3.9494,-3.9423,-3.9565,-3.9582,-3.9643,-3.9662,-3.9666,-3.9894,-3.9896,-3.9947,-3.9977,0,0,0,-3.9271,-3.9288,-3.931,-3.9328,-3.9388,-3.9492,-3.9511,-3.9569,-3.9588,-3.9659,-3.9667,-3.9893,-3.9896,-3.9943,-3.9971,-4.0037,0,0,0,-3.9252,-3.9357,-3.931,-3.9431,-3.9387,-3.9526,-3.951,-3.9614,-3.9682,-3.9663,-3.9894,-3.9897,-3.9942,-3.9967,-4.0033,-4.0091,-4.0115,0,0,-3.9381,-3.9372,-3.9443,-3.9406,-3.9552,-3.9505,-3.9658,-3.9725,-3.9737,-3.9843,-3.9849,-3.9948,-3.9971,-4.0036,-4.0255,-4.0274,0,0,0,-3.9483,-3.9533,-3.9573,-3.9638,-3.9692,-3.9741,-3.9785,-3.981,-3.99,-3.9791,-3.9991,-4.0005,-4.0043,-4.0071,-4.0087,-4.012,-3.991,-3.991,-3.9909,-3.9657,-3.9667,-3.9785,-3.9811,-3.9874,-3.9919,-3.997,-4.0011,-4.0002,-4.0049,-4.008,-4.0212,-4.0244,-4.0256,-4.0291,-4.0113,-4.0113,-4.0114,-4.0114,-3.9846,-3.9919,-3.9905,-4.0014,-4.0023,-4.0115,-4.0162,-4.0153,-4.0239,-4.0189,-4.0224,-4.0167,-4.0277,-4.0307,-4.0118,-4.0117,-4.0117,-4.0116,-4.0116,-3.996,-3.9996,-4.0026,-4.012,-4.0192,-4.0215,-4.0298,-4.0304,-4.031,-4.0344,-4.0376,-4.0376,-4.0374,-4.0359,-4.036,-4.036,-4.0361,-4.0361,-4.0361,-4.0066,-4.0097,-4.0167,-4.0233,-4.0275,-4.0331,-4.0378,-4.0419,-4.0466,-4.0464,-4.0464,-4.0449,-4.0287,-4.0245,-4.0369,-4.0367,-4.0366,-4.0366,-4.0365,-4.0251,-4.021,-4.0318,-4.036,-4.0438,-4.0508,-4.0515,-4.0599,-4.0634,-4.0675,-4.0654,-4.0533,-4.0524,-4.0511,-4.0476,-4.0652,-4.0652,-4.0652,-4.0652,-4.0346,-4.0342,-4.0453,-4.052,-4.0586,-4.0603,-4.0724,-4.0761,-4.0793,-4.0815,-4.0791,-4.0746,-4.0733,-4.0731,-4.0713,-4.0681,-4.0905,-4.0905,-4.0906,-4.0459,-4.0462,-4.0564,-4.0595,-4.0656,-4.0709,-4.0822,-4.0899,-4.0927,-4.0916,-4.0832,-4.0822,-4.0749,-4.0725,-4.071,-4.0683,-4.0623,0,0]},{"header":{"parameterUnit":"m.s-1","parameterCategory":1,"la1":30.2992,"la2":30.254,"lo1":-89.0895,"lo2":-89.0443,"dy":0.0025,"dx":0.0025,"nx":19,"ny":19,"refTime":"2026-04-22T03:00:00:Z","depth":0,"parameterNumber":3,"parameterNumberName":"V-component_of_WINDS"},"data":[0,0,0,3.1556,3.1557,3.1582,3.1582,3.1629,3.1629,0,0,0,0,0,0,0,0,0,0,0,3.1557,3.1558,3.1556,3.1557,3.1582,3.1582,3.1629,3.1629,0,0,0,0,0,0,0,0,0,0,0,3.1557,3.1557,3.1558,3.1557,3.1582,3.1582,3.1629,3.1604,0,0,0,0,0,0,0,0,0,0,3.1577,3.1587,3.1557,3.1558,3.1557,3.1582,3.1582,3.1603,3.1606,3.1623,0,3.1642,0,3.1637,3.1633,3.1634,0,0,0,3.155,3.1584,3.1583,3.1558,3.1557,3.1582,3.1569,3.1604,3.1608,3.1627,3.1642,3.1644,3.1637,3.1634,3.1634,3.176,3.1761,0,0,3.1548,3.1566,3.1581,3.1586,3.1583,3.1568,3.157,3.1606,3.1623,3.1642,3.1644,3.1638,3.1634,3.1635,3.1759,3.176,0,0,0,3.1549,3.1565,3.1563,3.1585,3.1588,3.1569,3.1571,3.1621,3.1619,3.1645,3.1639,3.1635,3.1635,3.1758,3.1759,3.182,0,0,0,3.1548,3.1566,3.1563,3.1574,3.1588,3.1605,3.1586,3.1617,3.162,3.1638,3.1635,3.1636,3.1757,3.1759,3.1816,3.1845,0,0,0,3.1552,3.1566,3.1573,3.1575,3.1587,3.1604,3.1604,3.1617,3.1617,3.1634,3.1636,3.1756,3.1758,3.1813,3.184,3.1883,0,0,0,3.1562,3.1626,3.1574,3.1644,3.1587,3.1643,3.1603,3.1644,3.1666,3.1635,3.1757,3.1759,3.1812,3.1836,3.1879,3.1921,3.1941,0,0,3.1653,3.1638,3.1678,3.1632,3.1701,3.1637,3.1716,3.1719,3.1704,3.1742,3.1745,3.1818,3.1839,3.1882,3.2047,3.2063,0,0,0,3.1712,3.1741,3.1756,3.1778,3.1783,3.1789,3.1778,3.1779,3.1811,3.1727,3.1845,3.1858,3.1882,3.1901,3.1914,3.1934,3.1769,3.1769,3.1769,3.1864,3.1844,3.1908,3.189,3.1913,3.1902,3.1917,3.1917,3.1889,3.1918,3.1928,3.2031,3.2054,3.2064,3.2084,3.195,3.195,3.195,3.195,3.1994,3.2031,3.1994,3.2043,3.2021,3.2061,3.2054,3.2033,3.2068,3.2021,3.2041,3.199,3.2081,3.2098,3.1955,3.1954,3.1954,3.1953,3.1953,3.209,3.2103,3.2105,3.2136,3.2162,3.2143,3.2178,3.2156,3.2136,3.2157,3.2165,3.2164,3.2158,3.2163,3.2163,3.2163,3.2164,3.2164,3.2164,3.2187,3.2187,3.2219,3.2232,3.2244,3.2257,3.2248,3.2259,3.2266,3.2247,3.2247,3.2216,3.2095,3.2064,3.217,3.2169,3.2168,3.2167,3.2167,3.2322,3.2289,3.2339,3.2351,3.2364,3.2391,3.2365,3.239,3.2396,3.2414,3.2379,3.2294,3.2276,3.2266,3.224,3.2384,3.2384,3.2384,3.2384,3.2401,3.2392,3.2438,3.2459,3.2477,3.2459,3.2516,3.2512,3.2501,3.2503,3.248,3.2445,3.2435,3.2423,3.2409,3.2384,3.2562,3.2562,3.2563,3.2483,3.2474,3.2527,3.2517,3.2526,3.2535,3.2587,3.2613,3.2594,3.2569,3.2505,3.2497,3.244,3.2423,3.2393,3.2372,3.2326,0,0]}]]